Regional Weather Roundup
Issued by NWS

Home | Current Version | Previous Version | Graphics & Text | Print | Product List | Glossary On
Versions: 1 2 3 4 5 6 7 8 9 10 11 12 13 14 15 16 17 18 19 20 21 22 23 24 25 26 27
000
ASUS45 KSLC 232210
RWRUT

UTAH REGIONAL WEATHER ROUNDUP
NATIONAL WEATHER SERVICE SALT LAKE CITY UT
400 PM MDT SUN APR 23 2017

UTZ001>011-023>025-232300-

NORTHERN UTAH

CITY           SKY/WX    TMP DP  RH WIND       PRES   REMARKS
BRIGHAM CITY   CLOUDY    63  32  31 E5        29.79F
HILL AFB       PTSUNNY   62  33  33 NW10      29.79F
LOGAN          CLOUDY    64  35  34 SW6       29.79F
OGDEN          PTSUNNY   63  32  31 N9        29.78F
SALT LAKE CITY CLOUDY    66  33  29 NW15      29.77S
TOOELE VALLEY  PTSUNNY   61  36  39 N8        29.80F
WENDOVER       CLOUDY    62  34  35 CALM      29.82S
HEBER CITY     CLOUDY    64  30  27 S7        29.75F
WEST JORDAN    PTSUNNY   64  45  51 NW17      29.79F

$$

UTZ011>015-024>027-232300-

CENTRAL/NORTHEAST UTAH

CITY           SKY/WX    TMP DP  RH WIND       PRES   REMARKS
PROVO AIRPORT  CLOUDY    61  42  49 NW20      29.74F
MOAB/CANYONLAN CLOUDY    75  22  13 SW10G20   29.76F
DELTA          CLOUDY    70  28  21 W13       29.71F
PRICE          MOSUNNY   67  20  16 S9        29.82F
RICHFIELD      SUNNY     75  23  14 SW24G32     N/A
ROOSEVELT      CLOUDY    70  23  17 E5        29.78F
VERNAL         CLOUDY    71  23  16 S9G22     29.77F

$$

UTZ013>016-019>022-027-232300-

SOUTHERN UTAH

CITY           SKY/WX    TMP DP  RH WIND       PRES   REMARKS
BRYCE CANYON   MOSUNNY   66  19  16 SW25G36   29.93F
CEDAR CITY     SUNNY     73  24  16 S28G39    29.78F
MILFORD        SUNNY     75  24  15 SW33G45   29.73F
ST GEORGE      CLOUDY    88  14   6 SW33G43   29.64F
HANKSVILLE     PTSUNNY   77  21  12 S17G28    29.78F
BLANDING       MOSUNNY   71  23  16 S12G22    29.94F

$$

REGIONAL REPORTS     COLORADO/ARIZONA

CITY           SKY/WX    TMP DP  RH WIND       PRES   REMARKS
CRAIG, CO      CLOUDY    67  26  21 SW14G25   29.80F
GRAND JUNCTION CLOUDY    74  26  16 W13       29.77F
RIFLE, CO      CLOUDY    74  20  13 SW8G20    29.78F
MONTROSE, CO   CLOUDY    73  20  13 SW14G29   29.83F
CORTEZ, CO     CLOUDY    75  22  13 S18G26    29.91F
COLORADO CITY    N/A     81  21  11 S24G35    29.83F
PAGE, AZ       PTSUNNY   78  24  13 NE5       29.77F
GRAND CANYON   PTSUNNY   72  22  15 SW24G36   29.96F
KINGMAN, AZ    SUNNY     85  19   9 SW33G45   29.79F
FLAGSTAFF, AZ  PTSUNNY   66  19  16 SW25G37   29.99F

$$

REGIONAL REPORTS    NEVADA/IDAHO/WYOMING

CITY           SKY/WX    TMP DP  RH WIND       PRES   REMARKS
LAS VEGAS, NV  PTSUNNY   88  15   6 SW20G33   29.67F
ELY, NY        LGT RAIN  50  33  52 W17G37    29.89R
ELKO, NV       SUNNY     63  22  20 SW18G25   29.84F
POCATELLO, ID  CLOUDY    58  35  42 W21       29.81F
BURLEY, ID     PTSUNNY   60  35  39 W10G21    29.78F
FORT BRIDGER,    N/A     62  28  27 W23G38    29.86S
EVANSTON, WY   CLOUDY    56  29  35 W20       29.85S
ROCK SPRINGS,  CLOUDY    63  21  20 SW10      29.77F
KEMMERER, WY     N/A     54  27  35 W25G35    29.84S

$$




USA.gov is the U.S. government's official web portal to all federal, state and local government web resources and services.